Overview Statistics Trail Chart Weather Telemetry Raw packets
 

This is the latest recevied weather packets stored in our database for station/object W1MDM-10. If no packets are shown the sender has not sent any weather packets the latest 10 day(s).

<< 20 21 22 23 24 25 26 >>
Time Temp. Humidity Pressure Rain* Wind** Luminosity Snow
1788217538 36.11° C 47% 1011.7 hPa 0 mm - - -
1788217238 36.11° C 47% 1011.8 hPa 0 mm - - -
1788216938 36.11° C 46% 1011.7 hPa 0 mm - - -
1788216638 36.11° C 48% 1011.8 hPa 0 mm - - -
1788216338 36.11° C 48% 1011.8 hPa 0 mm - - -
1788216038 36.11° C 47% 1011.8 hPa 0 mm - - -
1788215738 36.11° C 47% 1011.9 hPa 0 mm - - -
1788215438 36.11° C 47% 1012 hPa 0 mm - - -
1788215138 36.11° C 47% 1012 hPa 0 mm - - -
1788214838 36.11° C 47% 1012 hPa 0 mm - - -
1788214538 36.11° C 47% 1012 hPa 0 mm - - -
1788214238 35.56° C 48% 1012.1 hPa 0 mm - - -
1788213938 35° C 49% 1012.1 hPa 0 mm - - -
1788213638 35° C 49% 1012.1 hPa 0 mm - - -
1788213338 35.56° C 48% 1012.3 hPa 0 mm - - -
1788213038 35.56° C 49% 1012.3 hPa 0 mm - - -
1788212738 35.56° C 49% 1012.5 hPa 0 mm - - -
1788212438 35.56° C 48% 1012.5 hPa 0 mm - - -
1788212138 35° C 52% 1012.4 hPa 0 mm - - -
1788211838 35° C 49% 1012.5 hPa 0 mm - - -
1788211538 35.56° C 49% 1012.6 hPa 0 mm - - -
1788211238 36.11° C 49% 1012.6 hPa 0 mm - - -
1788210938 36.11° C 49% 1012.7 hPa 0 mm - - -
1788210638 36.11° C 50% 1012.8 hPa 0 mm - - -
1788210338 36.11° C 50% 1012.9 hPa 0 mm - - -

* Rain latest hour (hover to see other rain measurements)
** Current wind speed in m/s (hover to see current wind gust speed)